This is the latest recevied weather packets stored in our database for station/object N7NKE. If no packets are shown the sender has not sent any weather packets the latest 10 day(s).
| Time | Temp. | Humidity | Pressure | Rain* | Wind** | Luminosity | Snow |
|---|---|---|---|---|---|---|---|
| 1777763105 | 21.67° C | 62% | 1011.9 hPa | 0 mm | - | 413 W/m² | - |
| 1777759505 | 20.56° C | 63% | 1012.9 hPa | 0 mm | - | 817 W/m² | - |
| 1777759205 | 20° C | 65% | 1012.9 hPa | 0 mm | - | 812 W/m² | - |
| 1777754405 | 17.22° C | 69% | 1014.1 hPa | 0 mm | - | 926 W/m² | - |
| 1777752305 | 16.11° C | 74% | 1014.6 hPa | 0 mm | - | 991 W/m² | - |
| 1777750205 | 13.89° C | 81% | 1014.9 hPa | 0 mm | - | 146 W/m² | - |
| 1777749604 | 13.89° C | 80% | 1015.2 hPa | 0 mm | - | 116 W/m² | - |
| 1777744505 | 14.44° C | 74% | 1016.1 hPa | 0 mm | - | 888 W/m² | - |
| 1777740605 | 12.22° C | 79% | 1016.2 hPa | 0 mm | - | 148 W/m² | - |
| 1777736105 | 10.56° C | 83% | 1016.3 hPa | 0 mm | - | 193 W/m² | - |
| 1777734905 | 10.56° C | 82% | 1016.1 hPa | 0 mm | - | 51 W/m² | - |
| 1777734605 | 10.56° C | 82% | 1015.7 hPa | 0 mm | - | 39 W/m² | - |
| 1777722904 | 9.44° C | 85% | 1016.1 hPa | 0 mm | - | 0 W/m² | - |
| 1777720205 | 9.44° C | 83% | 1016 hPa | 0 mm | - | 0 W/m² | - |
| 1777719304 | 9.44° C | 82% | 1015.8 hPa | 0 mm | - | 0 W/m² | - |
| 1777718405 | 9.44° C | 81% | 1015.9 hPa | 0 mm | - | 0 W/m² | - |
| 1777717805 | 9.44° C | 81% | 1015.9 hPa | 0 mm | - | 0 W/m² | - |
| 1777713604 | 10.56° C | 80% | 1017.1 hPa | 0 mm | - | 0 W/m² | - |
| 1777707005 | 12.22° C | 71% | 1016.9 hPa | 0 mm | - | 0 W/m² | - |
| 1777706105 | 12.22° C | 70% | 1016.9 hPa | 0 mm | - | 0 W/m² | - |
| 1777704904 | 12.22° C | 72% | 1016.8 hPa | 0 mm | - | 0 W/m² | - |
| 1777703105 | 12.22° C | 71% | 1016.9 hPa | 0 mm | - | 0 W/m² | - |
| 1777702205 | 12.78° C | 70% | 1016.7 hPa | 0 mm | - | 0 W/m² | - |
| 1777697704 | 14.44° C | 60% | 1016.2 hPa | 0 mm | - | 0 W/m² | - |
| 1777697104 | 15° C | 59% | 1016 hPa | 0 mm | - | 0 W/m² | - |
* Rain latest hour (hover to see other rain measurements)
** Current wind speed in m/s (hover to see current wind gust speed)